CFG2RF EDDH-LEPA

Flight info

Callsign CFG2RF
Flight time N/A
Altitude 35000
Route HABFU1G HABFU Y348 DOMEG DCT LIRSU DCT LIMGO/N0446F350 N852 SUTAL DCT GTQ DCT POGOL DCT LASAT DCT MOROK DCT GILIR DCT GEVEA DCT INCUS DCT BALSI DCT RETNO DCT TUPOX DCT MTG DCT DIVKO DCT VATIR N852 PIVUS DCT BODEQ N852 VERSO DCT LUNIK
Aircraft A321/M-SDE3FGHIRWY/LB1

Departure

Time 2026-04-24 15:18
Airport Hamburg Helmut Schmidt Airport (EDDH)

Arrival

Time N/A
Airport Palma de Mallorca Airport (LEPA)
Time Latitude Longitude Altitude Speed Heading
2026-04-24 14:53 53.63292 10.00351 49 ft 0 kts 87°
2026-04-24 15:10 53.63291 10.00327 48 ft 4 kts 87°
2026-04-24 15:10 53.63290 10.00282 48 ft 4 kts 87°
2026-04-24 15:10 53.63289 10.00245 48 ft 4 kts 89°
2026-04-24 15:11 53.63296 10.00189 45 ft 4 kts 128°
2026-04-24 15:11 53.63307 10.00171 43 ft 4 kts 163°
2026-04-24 15:11 53.63315 10.00167 45 ft 0 kts 176°
2026-04-24 15:14 53.63277 10.00173 48 ft 8 kts 175°
2026-04-24 15:14 53.63226 10.00179 48 ft 6 kts 176°
2026-04-24 15:14 53.63221 10.00179 48 ft 0 kts 176°
2026-04-24 15:15 53.63218 10.00180 48 ft 4 kts 176°
2026-04-24 15:15 53.63135 10.00190 48 ft 20 kts 176°
2026-04-24 15:15 53.63024 10.00137 46 ft 15 kts 212°
2026-04-24 15:16 53.62964 10.00071 46 ft 10 kts 212°
2026-04-24 15:16 53.62922 9.99996 48 ft 8 kts 241°
2026-04-24 15:16 53.62894 9.99910 47 ft 9 kts 242°
2026-04-24 15:16 53.62864 9.99813 45 ft 11 kts 243°
2026-04-24 15:17 53.62884 9.99723 45 ft 8 kts 326°
2026-04-24 15:17 53.62959 9.99660 43 ft 23 kts 333°
2026-04-24 15:17 53.63315 9.99348 47 ft 90 kts 332°
2026-04-24 15:17 53.64042 9.98725 49 ft 141 kts 333°
2026-04-24 15:18 53.64999 9.97892 370 ft 154 kts 329°
2026-04-24 15:18 53.65908 9.97141 1234 ft 142 kts 330°
2026-04-24 15:18 53.66787 9.96446 1841 ft 140 kts 329°
2026-04-24 15:18 53.67701 9.95664 2142 ft 156 kts 329°
2026-04-24 15:19 53.68729 9.94765 2311 ft 177 kts 330°
2026-04-24 15:19 53.69887 9.93754 2518 ft 194 kts 331°
2026-04-24 15:19 53.71010 9.92454 2951 ft 199 kts 309°
2026-04-24 15:19 53.71524 9.90309 3391 ft 211 kts 276°
2026-04-24 15:20 53.71220 9.87744 3602 ft 235 kts 256°
2026-04-24 15:20 53.70679 9.85005 3963 ft 253 kts 257°
2026-04-24 15:20 53.70099 9.82154 4610 ft 260 kts 256°
2026-04-24 15:20 53.69503 9.79241 5291 ft 266 kts 256°
2026-04-24 15:21 53.68897 9.76264 5948 ft 271 kts 257°
2026-04-24 15:21 53.68284 9.73230 6624 ft 275 kts 257°
2026-04-24 15:21 53.67671 9.70150 7277 ft 279 kts 257°
2026-04-24 15:21 53.67057 9.67042 7969 ft 281 kts 257°
2026-04-24 15:22 53.66447 9.63950 8662 ft 283 kts 257°
2026-04-24 15:22 53.65757 9.60826 9359 ft 289 kts 249°
2026-04-24 15:22 53.64602 9.58001 10040 ft 299 kts 231°
2026-04-24 15:23 53.60974 9.53903 10657 ft 337 kts 212°
2026-04-24 15:23 53.56685 9.50010 11450 ft 357 kts 211°
2026-04-24 15:23 53.54486 9.48036 12082 ft 359 kts 211°
2026-04-24 15:24 53.47851 9.42028 13970 ft 366 kts 211°
2026-04-24 15:25 53.43344 9.37933 15114 ft 370 kts 211°
2026-04-24 15:25 53.38791 9.33795 16266 ft 374 kts 211°
2026-04-24 15:26 53.31755 9.27944 17932 ft 383 kts 199°
2026-04-24 15:27 53.23822 9.25425 19376 ft 392 kts 193°
2026-04-24 15:27 53.15698 9.23020 20713 ft 398 kts 193°
2026-04-24 15:28 53.04678 9.19740 22447 ft 407 kts 194°
2026-04-24 15:29 52.99116 9.18100 23282 ft 411 kts 194°
2026-04-24 15:30 52.91130 9.13456 24361 ft 407 kts 212°
2026-04-24 15:31 52.81109 9.04655 25813 ft 410 kts 211°
2026-04-24 15:32 52.70993 8.95851 27137 ft 415 kts 211°
2026-04-24 15:33 52.60712 8.86942 28416 ft 420 kts 211°
2026-04-24 15:33 52.52957 8.80231 29319 ft 424 kts 211°
2026-04-24 15:34 52.47721 8.75722 29872 ft 426 kts 211°
2026-04-24 15:35 52.39806 8.68922 30612 ft 430 kts 211°
2026-04-24 15:35 52.34493 8.64383 31108 ft 431 kts 211°
2026-04-24 15:35 52.31837 8.62118 31445 ft 430 kts 211°
2026-04-24 15:36 52.29213 8.59802 31814 ft 426 kts 216°
2026-04-24 15:36 52.24795 8.53731 32548 ft 414 kts 231°
2026-04-24 15:36 52.22874 8.50235 32927 ft 412 kts 231°
2026-04-24 15:37 52.20956 8.46778 33257 ft 411 kts 231°
2026-04-24 15:37 52.19035 8.43337 33573 ft 410 kts 230°
2026-04-24 15:37 52.17114 8.39909 33904 ft 409 kts 230°
2026-04-24 15:37 52.15199 8.36500 34275 ft 406 kts 230°
2026-04-24 15:38 52.13297 8.33118 34589 ft 404 kts 230°
2026-04-24 15:38 52.11426 8.29791 34840 ft 403 kts 230°
2026-04-24 15:38 52.09533 8.26423 35074 ft 403 kts 230°
2026-04-24 15:38 52.07640 8.23051 35174 ft 403 kts 230°
2026-04-24 15:39 52.03871 8.16361 35205 ft 400 kts 230°
2026-04-24 15:39 52.00110 8.09699 35185 ft 400 kts 230°
2026-04-24 15:40 51.96335 8.03042 35209 ft 401 kts 230°
2026-04-24 15:40 51.92577 7.96438 35209 ft 401 kts 230°
2026-04-24 15:41 51.88792 7.89800 35210 ft 401 kts 230°
2026-04-24 15:41 51.85001 7.83164 35212 ft 401 kts 230°
2026-04-24 15:42 51.81217 7.76541 35223 ft 401 kts 230°
2026-04-24 15:42 51.77442 7.69961 35203 ft 401 kts 229°
2026-04-24 15:43 51.73634 7.63367 35205 ft 402 kts 229°
2026-04-24 15:43 51.69342 7.57568 35209 ft 408 kts 213°
2026-04-24 15:44 51.64226 7.53529 35213 ft 410 kts 210°
2026-04-24 15:44 51.59112 7.49596 35209 ft 410 kts 210°
2026-04-24 15:45 51.53957 7.45646 35200 ft 411 kts 209°
2026-04-24 15:45 51.48796 7.41701 35204 ft 411 kts 209°
2026-04-24 15:46 51.43635 7.37751 35207 ft 411 kts 209°
2026-04-24 15:46 51.38460 7.33815 35213 ft 412 kts 209°
2026-04-24 15:47 51.33311 7.29925 35191 ft 412 kts 209°
2026-04-24 15:47 51.28120 7.26003 35203 ft 413 kts 209°
2026-04-24 15:48 51.22917 7.22064 35207 ft 414 kts 209°
2026-04-24 15:48 51.17713 7.18136 35212 ft 414 kts 209°
2026-04-24 15:49 51.12530 7.14242 35216 ft 415 kts 208°
2026-04-24 15:49 51.07317 7.10330 35211 ft 415 kts 208°
2026-04-24 15:50 51.02097 7.06418 35216 ft 415 kts 208°
2026-04-24 15:50 50.96877 7.02523 35217 ft 414 kts 208°
2026-04-24 15:51 50.91691 6.98678 35217 ft 414 kts 208°
2026-04-24 15:51 50.86475 6.94808 35218 ft 414 kts 208°
2026-04-24 15:52 50.81260 6.90930 35220 ft 414 kts 208°
2026-04-24 15:52 50.76038 6.87073 35221 ft 414 kts 208°
2026-04-24 15:53 50.70844 6.83255 35221 ft 414 kts 208°
2026-04-24 15:53 50.65622 6.79419 35206 ft 414 kts 208°
2026-04-24 15:54 50.60396 6.75585 35209 ft 415 kts 208°
2026-04-24 15:54 50.55164 6.71762 35203 ft 415 kts 208°
2026-04-24 15:55 50.49962 6.67971 35195 ft 415 kts 207°
2026-04-24 15:55 50.44727 6.64165 35179 ft 415 kts 207°
2026-04-24 15:56 50.39488 6.60364 35177 ft 415 kts 207°
2026-04-24 15:56 50.34241 6.56564 35180 ft 416 kts 207°
2026-04-24 15:57 50.28989 6.52763 35177 ft 416 kts 207°
2026-04-24 15:57 50.23766 6.49002 35170 ft 416 kts 207°
2026-04-24 15:58 50.18443 6.45415 35171 ft 419 kts 199°
2026-04-24 15:58 50.12735 6.43449 35167 ft 421 kts 194°
2026-04-24 15:59 50.06990 6.41644 35169 ft 421 kts 194°
2026-04-24 15:59 50.01239 6.39839 35162 ft 422 kts 194°
2026-04-24 16:00 49.95519 6.38053 35162 ft 422 kts 194°
2026-04-24 16:00 49.89758 6.36254 35181 ft 422 kts 194°
2026-04-24 16:01 49.84001 6.34458 35195 ft 422 kts 194°
2026-04-24 16:01 49.78243 6.32665 35191 ft 422 kts 193°
2026-04-24 16:02 49.72528 6.30892 35197 ft 422 kts 193°
2026-04-24 16:02 49.66745 6.29302 35200 ft 424 kts 186°
2026-04-24 16:03 49.60873 6.30217 35196 ft 430 kts 166°
2026-04-24 16:03 49.55279 6.33630 35178 ft 433 kts 160°
2026-04-24 16:04 49.49716 6.37223 35179 ft 434 kts 160°
2026-04-24 16:04 49.44184 6.40797 35176 ft 434 kts 159°
2026-04-24 16:05 49.35897 6.46444 35169 ft 434 kts 159°
2026-04-24 16:06 49.27627 6.52130 35173 ft 434 kts 159°
2026-04-24 16:07 49.19385 6.57686 35172 ft 433 kts 159°
2026-04-24 16:07 49.11118 6.63249 35165 ft 433 kts 158°
2026-04-24 16:08 49.02858 6.68796 35161 ft 433 kts 159°
2026-04-24 16:09 48.97168 6.71284 35159 ft 427 kts 176°
2026-04-24 16:09 48.94210 6.71457 35158 ft 425 kts 184°
2026-04-24 16:09 48.88297 6.71187 35151 ft 425 kts 183°
2026-04-24 16:11 48.73547 6.70645 35160 ft 425 kts 182°
2026-04-24 16:11 48.67642 6.70407 35159 ft 424 kts 182°
2026-04-24 16:12 48.58782 6.70062 35158 ft 425 kts 182°
2026-04-24 16:13 48.49920 6.69732 35156 ft 425 kts 182°
2026-04-24 16:14 48.38147 6.69260 35157 ft 425 kts 182°
2026-04-24 16:14 48.29285 6.68920 35157 ft 425 kts 182°
2026-04-24 16:15 48.20465 6.68593 35156 ft 424 kts 182°
2026-04-24 16:16 48.11617 6.68243 35163 ft 424 kts 182°
2026-04-24 16:17 47.96872 6.67690 35164 ft 424 kts 182°
2026-04-24 16:18 47.85140 6.67247 35161 ft 423 kts 182°
2026-04-24 16:19 47.76320 6.66905 35147 ft 423 kts 182°
2026-04-24 16:20 47.67539 6.66580 35147 ft 423 kts 182°
2026-04-24 16:20 47.58705 6.66255 35144 ft 423 kts 182°
2026-04-24 16:21 47.49880 6.65927 35147 ft 423 kts 182°
2026-04-24 16:22 47.44003 6.65602 35146 ft 422 kts 187°
2026-04-24 16:22 47.38449 6.63137 35143 ft 422 kts 207°
2026-04-24 16:22 47.35958 6.60854 35138 ft 423 kts 217°
2026-04-24 16:23 47.31469 6.55245 35144 ft 423 kts 219°
2026-04-24 16:24 47.24767 6.46856 35143 ft 423 kts 219°
2026-04-24 16:24 47.20275 6.41255 35134 ft 423 kts 219°
2026-04-24 16:25 47.15779 6.35657 35137 ft 424 kts 219°
2026-04-24 16:25 47.11286 6.30062 35140 ft 424 kts 219°
2026-04-24 16:26 47.06410 6.25288 35138 ft 421 kts 202°
2026-04-24 16:26 47.03690 6.23894 35135 ft 420 kts 193°
2026-04-24 16:27 46.94993 6.22406 35130 ft 421 kts 185°
2026-04-24 16:27 46.89156 6.21629 35134 ft 421 kts 185°
2026-04-24 16:28 46.68644 6.18895 35159 ft 422 kts 185°
2026-04-24 16:28 46.33693 6.14300 35132 ft 422 kts 185°
2026-04-24 16:29 46.23241 6.12884 35131 ft 422 kts 187°
2026-04-24 16:30 46.08725 6.09496 35123 ft 422 kts 189°
2026-04-24 16:30 45.97096 6.06929 35089 ft 423 kts 188°
2026-04-24 16:31 45.85530 6.04388 35090 ft 424 kts 188°
2026-04-24 16:31 45.73862 6.01809 35090 ft 425 kts 188°
2026-04-24 16:32 45.55883 5.97863 35063 ft 427 kts 188°
2026-04-24 16:32 45.32553 5.91345 35083 ft 429 kts 193°
2026-04-24 16:33 45.09372 5.84134 35100 ft 430 kts 192°
2026-04-24 16:33 44.85949 5.76929 35107 ft 432 kts 192°
2026-04-24 16:34 44.62439 5.69761 35116 ft 433 kts 192°
2026-04-24 16:34 44.38937 5.62625 35125 ft 431 kts 193°
2026-04-24 16:35 44.16681 5.50664 35108 ft 432 kts 200°
2026-04-24 16:35 43.94200 5.38470 35109 ft 435 kts 200°
2026-04-24 16:36 43.71531 5.26251 35120 ft 438 kts 200°
2026-04-24 16:36 43.48723 5.14064 35111 ft 441 kts 200°
2026-04-24 16:37 43.37386 5.07540 35083 ft 443 kts 213°
2026-04-24 16:37 43.27255 4.97899 35153 ft 446 kts 214°
2026-04-24 16:37 43.06645 4.78654 35129 ft 449 kts 215°
2026-04-24 16:38 42.88748 4.64910 35121 ft 451 kts 210°
2026-04-24 16:38 42.83255 4.60746 35135 ft 452 kts 210°
2026-04-24 16:39 42.77751 4.56604 35114 ft 452 kts 210°
2026-04-24 16:39 42.72243 4.52465 35126 ft 452 kts 210°
2026-04-24 16:40 42.66763 4.48364 35128 ft 453 kts 210°
2026-04-24 16:40 42.61249 4.44236 35128 ft 453 kts 210°
2026-04-24 16:41 42.55733 4.40114 35132 ft 453 kts 210°
2026-04-24 16:41 42.50217 4.35999 35129 ft 453 kts 210°
2026-04-24 16:42 42.44700 4.31887 35132 ft 453 kts 210°
2026-04-24 16:42 42.39216 4.27808 35136 ft 453 kts 210°
2026-04-24 16:43 42.33696 4.23709 35131 ft 453 kts 210°
2026-04-24 16:43 42.28171 4.19622 35131 ft 453 kts 210°
2026-04-24 16:44 42.22643 4.15543 35132 ft 452 kts 210°
2026-04-24 16:44 42.17155 4.11507 35139 ft 452 kts 210°
2026-04-24 16:45 42.11639 4.07442 35144 ft 452 kts 210°
2026-04-24 16:45 42.06122 4.03390 35141 ft 452 kts 210°
2026-04-24 16:46 42.00596 3.99365 35143 ft 452 kts 210°
2026-04-24 16:46 41.95106 3.95359 35142 ft 452 kts 208°
2026-04-24 16:47 41.89169 3.92595 35140 ft 455 kts 191°
2026-04-24 16:47 41.82927 3.91159 35139 ft 455 kts 191°
2026-04-24 16:48 41.76684 3.89724 35140 ft 455 kts 191°
2026-04-24 16:48 41.70432 3.88298 35143 ft 456 kts 191°